International Skating Union - Official Site

Essent ISU World Cup Moscow
January 28-30, 2011

Draw | Lap Times | Index | World Cup

Referee: Hannu  KOIVU  (FIN)
Starter: Hartmut  WEIRAUCH  (GER)
StartTime: EndTime: Air Temp: Ice Temp: Humidity:
14:33 15:06 13.5 ℃ -6 ℃ 36%
Result Team Pursuit Men
Rankings as of Jan 30 2011 3:13PM
Rank: No.: Team: Nation: Time: Behind: Points:
Total 10
1 5 Russia (92) Ivan SKOBREV (84) Pavel BAYNOV (91) Aleksandr RUMYANTSEV RUS RUS 3:43.710.5 - 18.22 - (18.2)
1.0 - 32.22 - (14.0)
1.5 - 45.91 - (13.6)
2.0 - 59.40 - (13.4)
2.5 - 1:13.05 - (13.6)
3.0 - 1:26.66 - (13.6)
3.5 - 1:40.53 - (13.8)
4.0 - 1:54.25 - (13.7)
4.5 - 2:07.94 - (13.6)
5.0 - 2:21.50 - (13.5)
5.5 - 2:35.03 - (13.5)
6.0 - 2:48.64 - (13.6)
6.5 - 3:02.41 - (13.7)
7.0 - 3:16.13 - (13.7)
7.5 - 3:29.89 - (13.7)
8.0 - 3:43.71 - (13.8)
150
2 10 Norway (67) Håvard BØKKO (72) Mikael FLYGIND-LARSEN (73) Sverre LUNDE PEDERSEN NOR NOR 3:46.680.5 - 17.82 - (17.8)
1.0 - 31.44 - (13.6)
1.5 - 45.14 - (13.7)
2.0 - 58.75 - (13.6)
2.5 - 1:12.46 - (13.7)
3.0 - 1:26.06 - (13.6)
3.5 - 1:40.04 - (13.9)
4.0 - 1:53.95 - (13.9)
4.5 - 2:08.05 - (14.1)
5.0 - 2:21.85 - (13.8)
5.5 - 2:35.86 - (14.0)
6.0 - 2:50.07 - (14.2)
6.5 - 3:04.51 - (14.4)
7.0 - 3:18.63 - (14.1)
7.5 - 3:32.69 - (14.0)
8.0 - 3:46.68 - (14.0)
2.97 120
3 1 Germany (27) Patrick BECKERT (35) Marco WEBER (32) Robert LEHMANN GER GER 3:47.150.5 - 17.92 - (17.9)
1.0 - 31.59 - (13.6)
1.5 - 45.26 - (13.6)
2.0 - 58.71 - (13.4)
2.5 - 1:12.40 - (13.6)
3.0 - 1:26.30 - (13.9)
3.5 - 1:40.20 - (13.9)
4.0 - 1:54.35 - (14.1)
4.5 - 2:08.39 - (14.0)
5.0 - 2:22.56 - (14.1)
5.5 - 2:36.75 - (14.1)
6.0 - 2:51.04 - (14.2)
6.5 - 3:05.55 - (14.5)
7.0 - 3:19.43 - (13.8)
7.5 - 3:33.29 - (13.8)
8.0 - 3:47.15 - (13.8)
3.44 105
4 7 Canada (13) Denny MORRISON (11) Lucas MAKOWSKY (15) Philippe RIOPEL CAN CAN 3:47.170.5 - 17.58 - (17.5)
1.0 - 30.83 - (13.2)
1.5 - 44.07 - (13.2)
2.0 - 57.60 - (13.5)
2.5 - 1:11.33 - (13.7)
3.0 - 1:25.00 - (13.6)
3.5 - 1:38.71 - (13.7)
4.0 - 1:52.55 - (13.8)
4.5 - 2:06.67 - (14.1)
5.0 - 2:20.65 - (13.9)
5.5 - 2:34.71 - (14.0)
6.0 - 2:49.00 - (14.2)
6.5 - 3:03.60 - (14.6)
7.0 - 3:18.13 - (14.5)
7.5 - 3:32.55 - (14.4)
8.0 - 3:47.17 - (14.6)
3.46 90
5 4 Poland (76) Zbigniew BRODKA (79) Konrad NIEDZWIEDZKI (78) Roland CIESLAK POL POL 3:49.340.5 - 17.54 - (17.5)
1.0 - 30.89 - (13.3)
1.5 - 44.72 - (13.8)
2.0 - 58.92 - (14.2)
2.5 - 1:13.37 - (14.4)
3.0 - 1:27.52 - (14.1)
3.5 - 1:41.64 - (14.1)
4.0 - 1:55.71 - (14.0)
4.5 - 2:09.99 - (14.2)
5.0 - 2:24.23 - (14.2)
5.5 - 2:38.62 - (14.3)
6.0 - 2:52.84 - (14.2)
6.5 - 3:07.17 - (14.3)
7.0 - 3:21.28 - (14.1)
7.5 - 3:35.33 - (14.0)
8.0 - 3:49.34 - (14.0)
5.63 75
6 6 Italy (36) Matteo ANESI (39) Luca STEFANI (37) Marco CIGNINI ITA ITA 3:50.580.5 - 17.64 - (17.6)
1.0 - 31.39 - (13.7)
1.5 - 45.25 - (13.8)
2.0 - 59.36 - (14.1)
2.5 - 1:13.39 - (14.0)
3.0 - 1:27.58 - (14.1)
3.5 - 1:41.71 - (14.1)
4.0 - 1:56.02 - (14.3)
4.5 - 2:10.29 - (14.2)
5.0 - 2:24.74 - (14.4)
5.5 - 2:39.09 - (14.3)
6.0 - 2:53.34 - (14.2)
6.5 - 3:07.48 - (14.1)
7.0 - 3:21.91 - (14.4)
7.5 - 3:36.30 - (14.3)
8.0 - 3:50.58 - (14.2)
6.87 45
7 2 Czech Republic (17) Zdenek HASELBERGER (18) Pavel KULMA (19) Milan SÁBLIK CZE CZE 3:57.200.5 - 18.73 - (18.7)
1.0 - 33.13 - (14.4)
1.5 - 47.33 - (14.2)
2.0 - 1:01.37 - (14.0)
2.5 - 1:15.62 - (14.2)
3.0 - 1:29.71 - (14.0)
3.5 - 1:44.02 - (14.3)
4.0 - 1:58.39 - (14.3)
4.5 - 2:13.14 - (14.7)
5.0 - 2:27.82 - (14.6)
5.5 - 2:42.62 - (14.8)
6.0 - 2:57.28 - (14.6)
6.5 - 3:12.07 - (14.7)
7.0 - 3:27.01 - (14.9)
7.5 - 3:42.39 - (15.3)
8.0 - 3:57.20 - (14.8)
13.49 40
8 3 Kazakhstan (44) Maxim BAKLASHKIN (47) Fedor MEZENTSEV (45) Aleksandr GLUSCHENKO KAZ KAZ 3:58.800.5 - 17.84 - (17.8)
1.0 - 32.04 - (14.2)
1.5 - 45.98 - (13.9)
2.0 - 1:00.08 - (14.1)
2.5 - 1:14.50 - (14.4)
3.0 - 1:29.23 - (14.7)
3.5 - 1:43.46 - (14.2)
4.0 - 1:57.91 - (14.4)
4.5 - 2:12.44 - (14.5)
5.0 - 2:27.27 - (14.8)
5.5 - 2:42.28 - (15.0)
6.0 - 2:57.57 - (15.2)
6.5 - 3:12.86 - (15.2)
7.0 - 3:28.08 - (15.2)
7.5 - 3:43.29 - (15.2)
8.0 - 3:58.80 - (15.5)
15.09 36
9 9 USA (96) Tucker FREDRICKS (95) Ryan BEDFORD (99) Mitchell WHITMORE USA USA 4:00.830.5 - 17.86 - (17.8)
1.0 - 32.24 - (14.3)
1.5 - 47.09 - (14.8)
2.0 - 1:02.10 - (15.0)
2.5 - 1:17.33 - (15.2)
3.0 - 1:32.13 - (14.8)
3.5 - 1:46.79 - (14.6)
4.0 - 2:01.08 - (14.2)
4.5 - 2:15.34 - (14.2)
5.0 - 2:29.75 - (14.4)
5.5 - 2:44.35 - (14.6)
6.0 - 2:59.10 - (14.7)
6.5 - 3:14.19 - (15.0)
7.0 - 3:29.40 - (15.2)
7.5 - 3:44.94 - (15.5)
8.0 - 4:00.83 - (15.8)
17.12 32
10 8 Netherlands (54) Wouter OLDE HEUVEL (51) Jan BLOKHUIJSEN (65) Bob de VRIES NED NED DQ0.5 - 18.19 - (18.1)
1.0 - 32.01 - (13.8)
1.5 - 45.70 - (13.6)
2.0 - 59.00 - (13.3)
2.5 - 1:12.61 - (13.6)
0